Weather History for KEVV - July, 2012

Change the Weather History Date:

Tuesday, July 10, 2012

  Actual Average Record
Temperature  
Mean Temperature 83 °F 78 °F  
Max Temperature 96 °F 89 °F 104 °F (1936)
Min Temperature 70 °F 68 °F 52 °F (1961)
Degree Days  
Heating Degree Days 0 0  
Month to date heating degree days 0 0  
Since 1 June heating degree days 9 6  
Since 1 July heating degree days 0 0  
Cooling Degree Days 18 13  
Month to date cooling degree days 220 130  
Year to date cooling degree days 904 563  
Since 1 June cooling degree days 569 428  
Growing Degree Days 33 (Base 50)    
Moisture  
Dew Point 60 °F    
Average Humidity 54    
Maximum Humidity 84    
Minimum Humidity 24    
Precipitation  
Precipitation 0.00 in 0.13 in 3.00 in (1967)
Month to date precipitation 0.59 1.32  
Year to date precipitation 12.12 25.34  
Snow  
Snow 0.00 in 0.00 in - ()
Month to date snowfall 0.0 0.0  
Since 1 June snowfall 0.0 0.0  
Since 1 July snowfall 0.0 0.0  
Snow Depth 0.00 in    
Sea Level Pressure  
Sea Level Pressure 29.98 in    
Wind  
Wind Speed 4 mph (ENE)    
Max Wind Speed 14 mph    
Max Gust Speed 17 mph    
Visibility 10 miles    
Events      
T = Trace of Precipitation, MM = Missing Value Source: NWS Daily Summary

Daily Weather History Graph

Daily Weather History Graph

Search for Another Location

Airport or City:

Trip Planner

Search our weather history database for the weather conditions in past years. The results will help you decide how hot, cold, wet, or windy it might be!

Date:

Astronomy

Jul. 10, 2012 Rise Set
Actual Time 5:36 AM CDT 8:14 PM CDT
Civil Twilight 5:05 AM CDT 8:45 PM CDT
Nautical Twilight 4:26 AM CDT 9:23 PM CDT
Astronomical Twilight 3:43 AM CDT 10:06 PM CDT
Moon No Moon Rise 12:53 PM CDT (7/10)
Length of Visible Light 15h 39m
Length of Day
14h 38m
Waning Gibbous, 54% of the Moon is Illuminated
Jul 10
Waning Gibbous
Jul 10
Last Quarter
Jul 18
New
Jul 26
First Quarter
Aug 1
Full

Hourly Weather History & Observations

Time (CDT) Temp. Heat Index Dew Point Humidity Pressure Visibility Wind Dir Wind Speed Gust Speed Precip Events Conditions
12:54 AM 71.1 °F - 66.0 °F 84% 29.99 in 10.0 mi Calm Calm - N/A   Partly Cloudy
1:54 AM 73.9 °F - 66.0 °F 76% 29.98 in 10.0 mi Calm Calm - N/A   Overcast
2:54 AM 73.0 °F - 66.0 °F 79% 29.98 in 10.0 mi NNE 3.5 mph - N/A   Overcast
3:54 AM 71.1 °F - 64.9 °F 81% 29.98 in 10.0 mi NE 3.5 mph - N/A   Partly Cloudy
4:54 AM 71.1 °F - 66.0 °F 84% 29.99 in 10.0 mi NE 3.5 mph - N/A   Partly Cloudy
5:54 AM 71.1 °F - 64.9 °F 81% 30.00 in 8.0 mi Calm Calm - N/A   Clear
6:54 AM 72.0 °F - 66.0 °F 81% 30.00 in 10.0 mi NE 4.6 mph - N/A   Clear
7:54 AM 78.1 °F - 63.0 °F 60% 30.01 in 10.0 mi NE 5.8 mph - N/A   Clear
8:54 AM 82.0 °F 83.1 °F 63.0 °F 52% 30.02 in 10.0 mi Variable 3.5 mph - N/A   Clear
9:54 AM 84.9 °F 84.4 °F 59.0 °F 41% 30.01 in 10.0 mi ESE 6.9 mph - N/A   Clear
10:54 AM 88.0 °F 87.1 °F 59.0 °F 37% 30.01 in 10.0 mi ENE 6.9 mph - N/A   Clear
11:54 AM 89.1 °F 87.1 °F 55.0 °F 31% 30.01 in 10.0 mi East 6.9 mph - N/A   Clear
12:54 PM 91.0 °F 89.7 °F 57.0 °F 32% 30.00 in 10.0 mi ESE 9.2 mph - N/A   Clear
1:54 PM 93.0 °F 91.4 °F 55.9 °F 29% 29.97 in 10.0 mi Variable 5.8 mph - N/A   Clear
2:54 PM 95.0 °F 92.5 °F 53.1 °F 24% 29.96 in 10.0 mi Variable 4.6 mph - N/A   Partly Cloudy
3:54 PM 95.0 °F 92.5 °F 53.1 °F 24% 29.95 in 10.0 mi NE 8.1 mph 16.1 mph N/A   Partly Cloudy
4:54 PM 95.0 °F 92.5 °F 53.1 °F 24% 29.95 in 10.0 mi NE 8.1 mph - N/A   Clear
5:54 PM 93.0 °F 90.6 °F 53.1 °F 26% 29.93 in 10.0 mi East 6.9 mph - N/A   Clear
6:54 PM 91.0 °F 89.2 °F 55.9 °F 30% 29.94 in 10.0 mi ESE 3.5 mph - N/A   Clear
7:54 PM 87.1 °F 85.9 °F 57.0 °F 36% 29.95 in 10.0 mi Calm Calm - N/A   Clear
8:54 PM 82.9 °F 82.6 °F 57.9 °F 42% 29.96 in 10.0 mi Calm Calm - N/A   Clear
9:54 PM 81.0 °F 81.6 °F 60.1 °F 49% 29.98 in 10.0 mi Calm Calm - N/A   Clear
10:54 PM 75.9 °F - 62.1 °F 62% 29.99 in 10.0 mi SSE 4.6 mph - N/A   Clear
11:54 PM 75.9 °F - 62.1 °F 62% 30.00 in 10.0 mi Calm Calm - N/A   Clear